Location: Harwich
(41.7160°N, 69.9939°W)
Time: 19:36:27
(UTC+01:00)

Vanguard 1 Rocket - All Passes

Search period start: 30 January 2023 00:00
Search period end: 09 February 2023 00:00
Orbit: 650 x 4225 km, 34.3° (Epoch: 29 January)

Date Brightness Start Highest point End Pass type
(mag) Time Alt. Az. Time Alt. Az. Time Alt. Az.
30 Jan - 00:32:28 10° W 00:54:25 49° SSW 01:16:59 10° SSE visible
30 Jan - 03:07:28 10° W 03:22:57 20° SW 03:36:56 10° SSW visible
30 Jan - 16:07:29 10° SSE 16:14:04 19° SE 16:23:30 10° E daylight
30 Jan - 18:27:22 10° SW 18:38:49 53° SSE 18:59:44 10° E daylight
30 Jan - 20:51:52 10° WSW 21:08:02 70° S 21:33:49 10° ESE daylight
30 Jan - 23:19:01 10° W 23:39:43 58° SSW 00:04:29 10° SE visible
31 Jan - 01:50:03 10° W 02:09:51 31° SW 02:28:41 10° S visible
31 Jan - 17:17:31 10° SSW 17:26:49 39° SE 17:43:19 10° E daylight
31 Jan - 19:40:31 10° WSW 19:54:00 66° SSE 20:18:00 10° E daylight
31 Jan - 22:06:24 10° W 22:24:50 65° SSW 22:50:41 10° ESE daylight
01 Feb - 00:35:08 10° W 00:55:58 43° SW 01:18:06 10° SSE visible
01 Feb - 03:12:49 10° W 03:24:11 15° SW 03:34:57 10° SSW visible
01 Feb - 16:08:44 10° S 16:15:45 23° SE 16:26:36 10° E daylight
01 Feb - 18:29:47 10° SW 18:40:54 58° SSE 19:01:48 10° E daylight
01 Feb - 20:54:29 10° W 21:10:13 69° S 21:35:45 10° ESE daylight
01 Feb - 23:21:37 10° W 23:41:31 53° SSW 00:05:54 10° SE visible
02 Feb - 01:53:28 10° W 02:11:11 26° SW 02:28:41 10° S visible
02 Feb - 15:04:09 10° SE 15:05:19 10° ESE 15:06:33 10° ESE daylight
02 Feb - 17:19:41 10° SW 17:28:47 44° SSE 17:45:33 10° E daylight
02 Feb - 19:43:07 10° WSW 19:56:15 68° S 20:19:59 10° E daylight
02 Feb - 22:09:02 10° W 22:26:51 61° SSW 22:52:20 10° SE daylight
03 Feb - 00:38:01 10° W 00:57:30 36° SW 01:18:49 10° SSE visible
03 Feb - 16:10:27 10° SSW 16:17:34 28° SE 16:29:20 10° E daylight
03 Feb - 18:32:18 10° WSW 18:43:07 61° SSE 19:03:49 10° E daylight
03 Feb - 20:57:08 10° W 21:12:25 66° S 21:37:35 10° ESE daylight
03 Feb - 23:24:19 10° W 23:43:17 47° SSW 00:07:02 10° SSE visible
04 Feb - 01:57:38 10° W 02:12:35 20° SW 02:27:45 10° SSW visible
04 Feb - 15:03:02 10° SSE 15:07:03 14° SE 15:12:15 10° E daylight
04 Feb - 17:22:03 10° SW 17:30:54 49° SSE 17:47:42 10° E daylight
04 Feb - 19:45:47 10° WSW 19:58:32 67° S 20:21:55 10° ESE daylight
04 Feb - 22:11:42 10° W 22:28:52 56° SSW 22:53:47 10° SE daylight
05 Feb - 00:41:12 10° W 00:59:04 30° SW 01:19:01 10° S visible
05 Feb - 16:12:28 10° SSW 16:19:33 33° SE 16:31:50 10° E daylight
05 Feb - 18:34:56 10° WSW 18:45:25 63° S 19:05:50 10° E daylight
05 Feb - 20:59:50 10° W 21:14:37 62° SSW 21:39:15 10° ESE daylight
05 Feb - 23:27:11 10° W 23:45:04 40° SSW 00:07:50 10° SSE visible
06 Feb - 02:03:21 10° WSW 02:14:04 15° SW 02:25:05 10° SSW visible
06 Feb - 15:04:04 10° S 15:08:55 18° SE 15:15:49 10° E daylight
06 Feb - 17:24:33 10° SW 17:33:08 53° SSE 17:49:50 10° E daylight
06 Feb - 19:48:29 10° W 20:00:53 66° S 20:23:46 10° ESE daylight
06 Feb - 22:14:27 10° W 22:30:52 50° SSW 22:54:57 10° SE daylight
07 Feb - 00:44:53 10° W 01:00:40 24° SW 01:18:32 10° S visible
07 Feb - 16:14:43 10° SW 16:21:40 39° SSE 16:34:12 10° E daylight
07 Feb - 18:37:37 10° WSW 18:47:49 64° S 19:07:49 10° E daylight
07 Feb - 21:02:33 10° W 21:16:50 57° SSW 21:40:44 10° SE daylight
07 Feb - 23:30:16 10° W 23:46:52 34° SW 00:08:09 10° SSE visible
08 Feb - 15:05:43 10° S 15:10:55 23° SE 15:18:49 10° E daylight
08 Feb - 17:27:09 10° WSW 17:35:30 57° SSE 17:51:56 10° E daylight
08 Feb - 19:51:14 10° W 20:03:14 62° S 20:25:30 10° ESE daylight
08 Feb - 22:17:19 10° W 22:32:54 43° SSW 22:55:47 10° SSE daylight
